#timestamp,LO_Frequency,Hit,StdDev 
1577365215.8,286046998.1,N
1577365235.7,286046999.3,N
1577365255.5,286046999.6,N
1577365275.3,286046997.3,N
1577365295.2,286046997.3,N
1577365315.0,286047001.2,N
1577365315.9,286047001.2,N
1577365335.7,286046998.4,N
1577365355.6,286046998.9,N
1577365375.4,286046999.4,N
1577365395.3,286046998.1,N
1577365415.1,286047002.6,N
1577365416.0,286047002.6,N
1577365435.8,286047002.6,N
1577365455.7,286047000.6,N
1577365475.5,286047001.0,N
1577365495.4,286047001.8,N
1577365515.2,286047002.6,N
1577365535.0,286047002.8,N
1577365535.9,286047002.8,N
1577365555.8,286047000.1,N
1577365575.6,286047000.6,N
1577365595.4,286046998.4,N
1577365615.3,286047000.9,N
1577365635.1,286047002.3,N
1577365655.9,286047000.0,N
1577365675.7,286047001.0,N
1577365695.5,286046998.9,N
1577365715.4,286047000.0,N
1577365735.2,286046998.6,N
1577365755.0,286046999.9,N
1577365755.9,286046999.9,N
1577365775.8,286047000.8,N
1577365795.6,286046998.9,N
1577365815.5,286046996.9,N
1577365835.3,286047000.0,N
1577365855.1,286047001.6,N
1577365875.9,286047002.5,N
1577365895.7,286047005.9,Y
1577365915.5,286047006.1,P
1577365935.4,286047006.6,N
1577365955.2,286047008.9,P
1577365975.1,286047008.9,N
1577365976.0,286047008.9,N
1577365995.8,286047007.0,N
1577366015.6,286047005.4,N
1577366035.5,286047003.9,N
1577366055.3,286047004.0,N
1577366075.1,286047004.2,N
1577366095.9,286047004.2,N
1577366115.7,286047002.3,N
1577366135.6,286046998.2,N
1577366155.4,286046998.6,N
1577366175.2,286046999.5,N
1577366195.1,286047000.6,N
1577366196.0,286047000.6,N
1577366215.8,286047004.0,N
1577366235.7,286047005.1,N
1577366255.5,286047006.4,N
1577366275.3,286047004.5,N
1577366295.2,286047004.1,N
1577366315.0,286047002.6,N
1577366315.9,286047002.6,N
1577366335.7,286047000.8,N
1577366355.6,286047000.0,N
1577366375.4,286047002.2,N
1577366395.3,286047001.5,N
1577366415.1,286047000.2,N
1577366416.0,286047000.2,N
1577366435.8,286047000.5,N
1577366455.7,286047000.0,N
1577366475.5,286047002.5,N
1577366495.3,286047004.2,N
1577366515.2,286047003.4,N
1577366535.0,286047005.7,N
1577366535.9,286047005.7,N
1577366555.8,286047007.2,Y
1577366575.6,286047007.5,P
1577366595.4,286047006.4,N
1577366615.3,286047005.0,N
1577366635.1,286047005.9,Y
1577366655.9,286046997.7,P
1577366675.7,286046995.0,N
1577366695.5,286046994.3,N
1577366715.4,286046990.3,N
1577366735.2,286046989.9,N
1577366755.0,286046987.3,N
1577366755.9,286046987.3,N
1577366775.8,286046987.7,N
1577366795.6,286046989.5,N
1577366815.5,286046987.3,N
1577366835.3,286046989.9,N
1577366855.1,286046987.0,N
1577366875.9,286046985.5,N
1577366895.7,286046988.4,N
1577366915.6,286046989.9,N
1577366935.4,286046987.7,N
1577366955.2,286046986.1,N
1577366975.1,286046987.6,N
1577366976.0,286046987.6,N
1577366995.8,286046989.4,N
1577367015.6,286046989.2,N
1577367035.5,286046987.6,N
1577367055.3,286046990.0,N
1577367075.2,286046988.0,N
1577367095.9,286046986.0,Y
1577367115.7,286046998.8,P
1577367135.6,286046999.2,N
1577367155.4,286046999.0,N
1577367175.2,286047000.0,N
1577367195.1,286047002.1,N
1577367196.0,286047002.1,N
1577367215.8,286047003.7,N
1577367235.7,286047003.9,N
1577367255.5,286047002.7,N
1577367275.3,286047002.8,N
1577367295.2,286047003.3,N
1577367315.0,286047003.7,N
1577367315.9,286047003.7,N
1577367335.8,286047001.4,N
1577367355.6,286047002.5,N
1577367375.4,286046998.8,N
1577367395.3,286047000.2,N
1577367415.1,286047001.4,N
1577367435.8,286047002.7,N
1577367455.7,286046998.2,N
1577367475.5,286047000.6,N
1577367495.4,286047001.6,N
1577367515.2,286047000.5,N
1577367535.0,286046998.5,N
1577367535.9,286046998.5,N
1577367555.8,286046999.4,N
1577367575.6,286046996.6,N
1577367595.4,286047001.2,N
1577367615.3,286046998.2,N
1577367635.1,286046999.1,N
1577367655.9,286047000.5,N
1577367675.7,286046999.4,N
1577367695.5,286046996.9,N
1577367715.4,286046999.6,N
1577367735.2,286046997.9,N
1577367755.0,286046995.2,N
1577367756.0,286046995.2,N
1577367775.8,286046996.1,N
1577367795.6,286046997.9,N
1577367815.5,286046997.9,N
1577367835.3,286046998.0,N
1577367855.1,286046997.2,N
1577367875.9,286046997.3,N
1577367895.7,286046997.3,N
1577367915.6,286046997.3,N
1577367935.4,286046994.9,N
1577367955.2,286046997.4,N
1577367975.1,286046997.9,N
1577367976.0,286046997.9,N
1577367995.8,286046998.5,N
1577368015.6,286046996.8,N
1577368035.5,286046998.1,N
1577368055.3,286046998.8,N
1577368075.2,286046999.0,N
1577368095.9,286046997.8,N
1577368115.7,286046997.0,N
1577368135.6,286046999.4,N
1577368155.4,286046999.4,N
1577368175.2,286047001.2,N
1577368195.1,286046998.3,N
1577368196.0,286046998.3,N
1577368215.8,286046996.8,N
1577368235.7,286046997.0,N
1577368255.5,286046997.4,N
1577368275.3,286046999.6,N
1577368295.2,286046998.6,N
1577368315.0,286047002.2,N
1577368315.9,286047002.2,N
1577368335.8,286047001.8,N
1577368355.6,286047001.1,N
1577368375.4,286047000.9,N
1577368395.3,286046999.1,N
1577368415.1,286047000.9,N
1577368435.8,286047001.3,N
1577368455.7,286047000.6,N
1577368475.5,286047001.0,N
1577368495.4,286047002.3,N
1577368515.2,286047002.6,N
1577368535.0,286047000.3,N
1577368535.9,286047000.3,N
1577368555.8,286047002.2,N
1577368575.6,286047001.0,N
1577368595.4,286047001.1,N
1577368615.3,286046998.9,N
1577368635.1,286046999.0,N
1577368655.9,286046998.6,N
1577368675.7,286047000.9,N
1577368695.5,286046998.4,N
1577368715.4,286047002.0,N
1577368735.2,286047002.0,N
1577368755.0,286047000.4,N
1577368755.9,286047000.4,N
1577368775.8,286047002.0,N
1577368795.6,286047001.4,N
